User: anonymous   Login
Location: Unspecified
(0.0000°N, 0.0000°E)
Time: 18:56:06
(UTC+00:00)
Language:

XW-2B - Orbit

View from above orbital plane
View from above orbital plane
View from above satellite
View from above satellite

Ground track
Ground track

The orbit data is extracted from the following two-line orbital elements,

1 40911U 15049N   19343.29221921  .00000462  00000-0  27504-4 0  9996
2 40911  97.4722 342.9208 0013176 321.3554 164.4178 15.15985213233208
Epoch (UTC): 09 December 2019 07:00:47
Eccentricity: 0.0013176
inclination: 97.4722°
perigee height: 509 km
apogee height: 527 km
right ascension of ascending node: 342.9208°
argument of perigee: 321.3554°
revolutions per day: 15.15985213
mean anomaly at epoch: 164.4178°
orbit number at epoch: 23320

The dashed part of the orbit path shows where the satellite is in the earth's shadow,  

DLR